| time (UTC) | temp F | wind direction | speed MPH | gust MPH | rain 1hr in | rain 24hr in | rain mn in | humidity % | barometer mb |
| 20260906120032 | 80 | 0 | 0.0 | 0.0 | 0.00 | 0.00 | 0.00 | 44 | 1013.6 |
| 20260906115049 | 80 | 12 | 0.0 | 3.0 | 0.00 | 0.00 | 0.00 | 44 | 1013.6 |
| 20260906114032 | 80 | 50 | 0.0 | 1.0 | 0.00 | 0.00 | 0.00 | 45 | 1013.6 |
| 20260906113032 | 80 | 40 | 0.0 | 1.0 | 0.00 | 0.00 | 0.00 | 45 | 1013.4 |
| 20260906112032 | 79 | 44 | 0.0 | 3.0 | 0.00 | 0.00 | 0.00 | 46 | 1013.4 |
| 20260906111032 | 79 | 36 | 0.0 | 6.0 | 0.00 | 0.00 | 0.00 | 49 | 1013.2 |
| 20260906110032 | 78 | 0 | 0.0 | 0.0 | 0.00 | 0.00 | 0.00 | 50 | 1013.4 |
| 20260906105106 | 78 | 0 | 0.0 | 0.0 | 0.00 | 0.00 | 0.00 | 50 | 1013.4 |
| 20260906104032 | 78 | 0 | 0.0 | 0.0 | 0.00 | 0.00 | 0.00 | 50 | 1013.4 |
| 20260906103032 | 78 | 0 | 0.0 | 0.0 | 0.00 | 0.00 | 0.00 | 50 | 1013.4 |
| 20260906102032 | 78 | 47 | 0.0 | 3.0 | 0.00 | 0.00 | 0.00 | 51 | 1013.4 |
| 20260906101032 | 78 | 41 | 0.0 | 3.0 | 0.00 | 0.00 | 0.00 | 50 | 1013.4 |
| 20260906100030 | 78 | 45 | 0.0 | 3.0 | 0.00 | 0.00 | 0.00 | 50 | 1013.2 |
| 20260906095030 | 78 | 61 | 0.0 | 3.0 | 0.00 | 0.00 | 0.00 | 50 | 1013.2 |
| 20260906094032 | 79 | 65 | 0.0 | 3.0 | 0.00 | 0.00 | 0.00 | 49 | 1013.1 |
| 20260906093032 | 79 | 65 | 1.0 | 3.0 | 0.00 | 0.00 | 0.00 | 48 | 1013.1 |
| 20260906092032 | 80 | 47 | 0.0 | 3.0 | 0.00 | 0.00 | 0.00 | 47 | 1013.1 |
| 20260906091032 | 81 | 55 | 0.0 | 1.0 | 0.00 | 0.00 | 0.00 | 45 | 1013.1 |
| 20260906090032 | 81 | 41 | 0.0 | 1.0 | 0.00 | 0.00 | 0.00 | 43 | 1013.3 |
| 20260906085030 | 82 | 0 | 0.0 | 0.0 | 0.00 | 0.00 | 0.00 | 41 | 1013.3 |
| 20260906084030 | 82 | 0 | 0.0 | 0.0 | 0.00 | 0.00 | 0.00 | 40 | 1013.3 |
| 20260906083032 | 82 | 52 | 0.0 | 6.0 | 0.00 | 0.00 | 0.00 | 40 | 1013.4 |
| 20260906082032 | 82 | 41 | 0.0 | 1.0 | 0.00 | 0.00 | 0.00 | 41 | 1013.4 |
| 20260906081032 | 83 | 39 | 0.0 | 1.0 | 0.00 | 0.00 | 0.00 | 41 | 1013.5 |
| 20260906080032 | 83 | 0 | 0.0 | 0.0 | 0.00 | 0.00 | 0.00 | 40 | 1013.6 |
| 20260906075032 | 83 | 12 | 0.0 | 3.0 | 0.00 | 0.00 | 0.00 | 40 | 1013.6 |
| 20260906074030 | 83 | 19 | 0.0 | 1.0 | 0.00 | 0.00 | 0.00 | 41 | 1013.6 |
| 20260906073032 | 83 | 48 | 0.0 | 1.0 | 0.00 | 0.00 | 0.00 | 41 | 1013.7 |
| 20260906072032 | 83 | 43 | 0.0 | 3.0 | 0.00 | 0.00 | 0.00 | 42 | 1013.7 |
| 20260906071107 | 83 | 41 | 0.0 | 3.0 | 0.00 | 0.00 | 0.00 | 43 | 1013.9 |
| 20260906070032 | 83 | 10 | 0.0 | 3.0 | 0.00 | 0.00 | 0.00 | 43 | 1014.0 |
| 20260906065032 | 83 | 44 | 0.0 | 1.0 | 0.00 | 0.00 | 0.00 | 42 | 1014.0 |
| 20260906064032 | 84 | 0 | 0.0 | 0.0 | 0.00 | 0.00 | 0.00 | 42 | 1013.8 |
| 20260906063047 | 84 | 25 | 0.0 | 3.0 | 0.00 | 0.00 | 0.00 | 41 | 1014.0 |
| 20260906062032 | 84 | 46 | 1.0 | 6.0 | 0.00 | 0.00 | 0.00 | 42 | 1014.0 |
| 20260906061032 | 84 | 41 | 3.0 | 10.0 | 0.00 | 0.00 | 0.00 | 41 | 1014.1 |
| 20260906060032 | 84 | 54 | 3.0 | 7.0 | 0.00 | 0.00 | 0.00 | 42 | 1014.3 |
| 20260906055106 | 84 | 48 | 3.0 | 7.0 | 0.00 | 0.00 | 0.00 | 43 | 1014.3 |
| 20260906054032 | 84 | 57 | 2.0 | 7.0 | 0.00 | 0.00 | 0.00 | 42 | 1014.2 |
| 20260906053030 | 85 | 40 | 2.0 | 7.0 | 0.00 | 0.00 | 0.00 | 42 | 1014.2 |
| 20260906052106 | 85 | 46 | 1.0 | 4.0 | 0.00 | 0.00 | 0.00 | 41 | 1014.2 |
| 20260906051032 | 86 | 43 | 1.0 | 3.0 | 0.00 | 0.00 | 0.00 | 41 | 1014.4 |
| 20260906050032 | 86 | 44 | 0.0 | 3.0 | 0.00 | 0.00 | 0.00 | 41 | 1014.3 |
| 20260906045049 | 86 | 50 | 0.0 | 4.0 | 0.00 | 0.00 | 0.00 | 41 | 1014.3 |
| 20260906044032 | 86 | 44 | 1.0 | 6.0 | 0.00 | 0.00 | 0.00 | 41 | 1014.3 |
| 20260906043049 | 86 | 40 | 1.0 | 6.0 | 0.00 | 0.00 | 0.00 | 42 | 1014.3 |
| 20260906042032 | 86 | 0 | 0.0 | 0.0 | 0.00 | 0.00 | 0.00 | 42 | 1014.3 |
| 20260906041104 | 86 | 52 | 1.0 | 6.0 | 0.00 | 0.00 | 0.00 | 42 | 1014.6 |
| 20260906040049 | 86 | 44 | 1.0 | 6.0 | 0.00 | 0.00 | 0.00 | 42 | 1014.3 |
| 20260906035032 | 87 | 47 | 0.0 | 1.0 | 0.00 | 0.00 | 0.00 | 41 | 1014.3 |
| 20260906034032 | 88 | 42 | 0.0 | 1.0 | 0.00 | 0.00 | 0.00 | 40 | 1014.0 |
| 20260906033032 | 88 | 42 | 0.0 | 1.0 | 0.00 | 0.00 | 0.00 | 38 | 1013.9 |
| 20260906032032 | 89 | 0 | 0.0 | 0.0 | 0.00 | 0.00 | 0.00 | 38 | 1013.9 |
| 20260906031030 | 89 | 9 | 0.0 | 1.0 | 0.00 | 0.00 | 0.00 | 37 | 1013.9 |
| 20260906030030 | 89 | 356 | 0.0 | 3.0 | 0.00 | 0.00 | 0.00 | 36 | 1013.5 |
| 20260906025032 | 90 | 3 | 0.0 | 1.0 | 0.00 | 0.00 | 0.00 | 36 | 1013.5 |
| 20260906024033 | 90 | 0 | 1.0 | 6.0 | 0.00 | 0.00 | 0.00 | 36 | 1013.2 |
| 20260906023032 | 90 | 356 | 0.0 | 1.0 | 0.00 | 0.00 | 0.00 | 35 | 1013.2 |
| 20260906022032 | 91 | 343 | 0.0 | 3.0 | 0.00 | 0.00 | 0.00 | 34 | 1013.2 |
| 20260906021032 | 91 | 0 | 0.0 | 0.0 | 0.00 | 0.00 | 0.00 | 34 | 1013.9 |
| 20260906020030 | 91 | 0 | 0.0 | 0.0 | 0.00 | 0.00 | 0.00 | 34 | 1013.7 |
| 20260906015030 | 92 | 0 | 0.0 | 0.0 | 0.00 | 0.00 | 0.00 | 34 | 1013.7 |
| 20260906014032 | 92 | 282 | 0.0 | 3.0 | 0.00 | 0.00 | 0.00 | 33 | 1013.6 |
| 20260906013032 | 93 | 277 | 0.0 | 3.0 | 0.00 | 0.00 | 0.00 | 32 | 1013.7 |
| 20260906012032 | 94 | 0 | 0.0 | 0.0 | 0.00 | 0.00 | 0.00 | 32 | 1013.7 |
| 20260906011032 | 95 | 283 | 1.0 | 6.0 | 0.00 | 0.00 | 0.00 | 31 | 1013.7 |
| 20260906010049 | 95 | 72 | 1.0 | 6.0 | 0.00 | 0.00 | 0.00 | 31 | 1013.6 |
| 20260906005030 | 95 | 312 | 1.0 | 6.0 | 0.00 | 0.00 | 0.00 | 31 | 1013.6 |
| 20260906004032 | 96 | 290 | 1.0 | 9.0 | 0.00 | 0.00 | 0.00 | 31 | 1013.4 |
| 20260906003032 | 96 | 279 | 1.0 | 7.0 | 0.00 | 0.00 | 0.00 | 31 | 1013.3 |
| 20260906002032 | 96 | 84 | 3.0 | 9.0 | 0.00 | 0.00 | 0.00 | 31 | 1013.3 |
| 20260906001032 | 96 | 272 | 2.0 | 9.0 | 0.00 | 0.00 | 0.00 | 31 | 1013.1 |
| 20260906000032 | 96 | 285 | 3.0 | 10.0 | 0.00 | 0.00 | 0.00 | 31 | 1013.0 |
| 20260905235032 | 96 | 283 | 6.0 | 16.0 | 0.00 | 0.00 | 0.00 | 31 | 1013.0 |
| 20260905234030 | 96 | 275 | 3.0 | 10.0 | 0.00 | 0.00 | 0.00 | 31 | 1013.0 |
| 20260905233049 | 96 | 275 | 5.0 | 10.0 | 0.00 | 0.00 | 0.00 | 31 | 1013.2 |
| 20260905232032 | 96 | 270 | 4.0 | 12.0 | 0.00 | 0.00 | 0.00 | 30 | 1013.2 |
| 20260905231032 | 97 | 84 | 5.0 | 10.0 | 0.00 | 0.00 | 0.00 | 30 | 1013.2 |
| 20260905230032 | 97 | 88 | 4.0 | 10.0 | 0.00 | 0.00 | 0.00 | 30 | 1013.3 |
| 20260905225032 | 96 | 273 | 4.0 | 15.0 | 0.00 | 0.00 | 0.00 | 30 | 1013.3 |
| 20260905224032 | 96 | 280 | 2.0 | 7.0 | 0.00 | 0.00 | 0.00 | 30 | 1013.2 |
| 20260905223030 | 97 | 277 | 3.0 | 9.0 | 0.00 | 0.00 | 0.00 | 30 | 1013.3 |
| 20260905222032 | 97 | 273 | 3.0 | 16.0 | 0.00 | 0.00 | 0.00 | 31 | 1013.3 |
| 20260905221032 | 96 | 82 | 4.0 | 13.0 | 0.00 | 0.00 | 0.00 | 30 | 1013.4 |
| 20260905220032 | 96 | 275 | 2.0 | 12.0 | 0.00 | 0.00 | 0.00 | 31 | 1013.6 |
| 20260905215032 | 96 | 280 | 6.0 | 10.0 | 0.00 | 0.00 | 0.00 | 31 | 1013.6 |
| 20260905214032 | 96 | 70 | 6.0 | 10.0 | 0.00 | 0.00 | 0.00 | 31 | 1013.7 |
| 20260905213030 | 96 | 69 | 6.0 | 15.0 | 0.00 | 0.00 | 0.00 | 31 | 1013.8 |
| 20260905212030 | 96 | 80 | 5.0 | 10.0 | 0.00 | 0.00 | 0.00 | 31 | 1013.8 |
| 20260905211032 | 95 | 87 | 7.0 | 13.0 | 0.00 | 0.00 | 0.00 | 32 | 1014.2 |
| 20260905210032 | 95 | 271 | 7.0 | 13.0 | 0.00 | 0.00 | 0.00 | 32 | 1014.3 |
| 20260905205032 | 95 | 275 | 5.0 | 12.0 | 0.00 | 0.00 | 0.00 | 32 | 1014.3 |
| 20260905204032 | 95 | 275 | 3.0 | 12.0 | 0.00 | 0.00 | 0.00 | 33 | 1014.5 |
| 20260905203032 | 95 | 72 | 5.0 | 10.0 | 0.00 | 0.00 | 0.00 | 33 | 1014.9 |
| 20260905202047 | 94 | 67 | 4.0 | 10.0 | 0.00 | 0.00 | 0.00 | 33 | 1014.9 |
| 20260905201030 | 94 | 83 | 6.0 | 13.0 | 0.00 | 0.00 | 0.00 | 33 | 1014.8 |
| 20260905200032 | 94 | 86 | 3.0 | 9.0 | 0.00 | 0.00 | 0.00 | 34 | 1015.2 |
| 20260905195049 | 94 | 280 | 3.0 | 7.0 | 0.00 | 0.00 | 0.00 | 34 | 1015.2 |
| 20260905194032 | 93 | 73 | 5.0 | 15.0 | 0.00 | 0.00 | 0.00 | 35 | 1015.3 |
| 20260905193032 | 93 | 84 | 4.0 | 10.0 | 0.00 | 0.00 | 0.00 | 35 | 1015.6 |
| 20260905192032 | 93 | 86 | 3.0 | 9.0 | 0.00 | 0.00 | 0.00 | 36 | 1015.6 |
| 20260905191030 | 92 | 85 | 4.0 | 12.0 | 0.00 | 0.00 | 0.00 | 36 | 1016.0 |
| 20260905190049 | 92 | 76 | 3.0 | 13.0 | 0.00 | 0.00 | 0.00 | 37 | 1016.2 |
| 20260905185032 | 92 | 275 | 4.0 | 9.0 | 0.00 | 0.00 | 0.00 | 37 | 1016.2 |
| 20260905184049 | 92 | 277 | 4.0 | 12.0 | 0.00 | 0.00 | 0.00 | 38 | 1016.3 |
| 20260905183032 | 92 | 274 | 2.0 | 7.0 | 0.00 | 0.00 | 0.00 | 38 | 1016.6 |
| 20260905182032 | 91 | 274 | 1.0 | 10.0 | 0.00 | 0.00 | 0.00 | 39 | 1016.6 |
| 20260905181032 | 91 | 74 | 4.0 | 10.0 | 0.00 | 0.00 | 0.00 | 40 | 1016.4 |
| 20260905180030 | 90 | 67 | 3.0 | 12.0 | 0.00 | 0.00 | 0.00 | 40 | 1016.7 |
| 20260905175049 | 90 | 279 | 2.0 | 7.0 | 0.00 | 0.00 | 0.00 | 40 | 1016.7 |
| 20260905174032 | 90 | 89 | 1.0 | 6.0 | 0.00 | 0.00 | 0.00 | 41 | 1016.8 |
| 20260905173032 | 89 | 281 | 1.0 | 6.0 | 0.00 | 0.00 | 0.00 | 43 | 1016.6 |
| 20260905172032 | 89 | 48 | 1.0 | 6.0 | 0.00 | 0.00 | 0.00 | 45 | 1016.6 |
| 20260905171049 | 88 | 59 | 1.0 | 4.0 | 0.00 | 0.00 | 0.00 | 46 | 1016.8 |
| 20260905170049 | 88 | 27 | 1.0 | 4.0 | 0.00 | 0.00 | 0.00 | 47 | 1017.0 |
| 20260905165030 | 87 | 12 | 1.0 | 6.0 | 0.00 | 0.00 | 0.00 | 48 | 1017.0 |
| 20260905164030 | 87 | 50 | 1.0 | 3.0 | 0.00 | 0.00 | 0.00 | 49 | 1016.9 |
| 20260905163032 | 86 | 61 | 0.0 | 3.0 | 0.00 | 0.00 | 0.00 | 50 | 1016.8 |
| 20260905162032 | 85 | 44 | 0.0 | 3.0 | 0.00 | 0.00 | 0.00 | 51 | 1016.8 |
| 20260905161032 | 85 | 37 | 1.0 | 4.0 | 0.00 | 0.00 | 0.00 | 52 | 1016.7 |
| 20260905160032 | 84 | 84 | 0.0 | 3.0 | 0.00 | 0.00 | 0.00 | 53 | 1016.8 |
| 20260905155032 | 84 | 45 | 1.0 | 4.0 | 0.00 | 0.00 | 0.00 | 54 | 1016.8 |
| 20260905154030 | 84 | 68 | 1.0 | 3.0 | 0.00 | 0.00 | 0.00 | 54 | 1016.8 |
| 20260905153049 | 84 | 270 | 1.0 | 6.0 | 0.00 | 0.00 | 0.00 | 53 | 1016.6 |
| 20260905152032 | 84 | 8 | 0.0 | 1.0 | 0.00 | 0.00 | 0.00 | 52 | 1016.6 |
| 20260905151032 | 84 | 0 | 0.0 | 0.0 | 0.00 | 0.00 | 0.00 | 52 | 1016.6 |
| 20260905150032 | 82 | 0 | 0.0 | 0.0 | 0.00 | 0.00 | 0.00 | 53 | 1016.9 |
| 20260905145032 | 81 | 0 | 0.0 | 0.0 | 0.00 | 0.00 | 0.00 | 54 | 1016.9 |
| 20260905144032 | 80 | 13 | 0.0 | 3.0 | 0.00 | 0.00 | 0.00 | 56 | 1017.0 |
| 20260905143032 | 78 | 0 | 0.0 | 0.0 | 0.00 | 0.00 | 0.00 | 61 | 1017.1 |
| 20260905142032 | 76 | 17 | 0.0 | 1.0 | 0.00 | 0.00 | 0.00 | 65 | 1017.1 |
| 20260905141032 | 75 | 54 | 0.0 | 3.0 | 0.00 | 0.00 | 0.00 | 68 | 1016.8 |
| 20260905140032 | 74 | 0 | 0.0 | 0.0 | 0.00 | 0.00 | 0.00 | 69 | 1016.8 |
| 20260905135032 | 74 | 0 | 0.0 | 0.0 | 0.00 | 0.00 | 0.00 | 70 | 1016.8 |
| 20260905134032 | 73 | 0 | 0.0 | 0.0 | 0.00 | 0.00 | 0.00 | 71 | 1016.7 |
| 20260905133032 | 73 | 0 | 0.0 | 0.0 | 0.00 | 0.00 | 0.00 | 71 | 1016.4 |
| 20260905132030 | 73 | 0 | 0.0 | 0.0 | 0.00 | 0.00 | 0.00 | 71 | 1016.4 |
| 20260905131032 | 74 | 0 | 0.0 | 0.0 | 0.00 | 0.00 | 0.00 | 70 | 1015.9 |
| 20260905130032 | 74 | 0 | 0.0 | 0.0 | 0.00 | 0.00 | 0.00 | 69 | 1015.7 |
| 20260905125032 | 74 | 0 | 0.0 | 0.0 | 0.00 | 0.00 | 0.00 | 69 | 1015.7 |
| 20260905124032 | 74 | 0 | 0.0 | 0.0 | 0.00 | 0.00 | 0.00 | 68 | 1015.6 |
| 20260905123032 | 75 | 0 | 0.0 | 0.0 | 0.00 | 0.00 | 0.00 | 67 | 1015.4 |
| 20260905122030 | 75 | 0 | 0.0 | 0.0 | 0.00 | 0.00 | 0.00 | 66 | 1015.4 |
| 20260905121047 | 76 | 0 | 0.0 | 0.0 | 0.00 | 0.00 | 0.00 | 64 | 1015.0 |